Location: West Cummington
(42.4920°N, 72.9680°W)
Time: 11:11:01
(UTC-04:00)

ATLAS 2AS CENTAUR R/B - Visible Passes

Search period start: 26 July 2014 00:00
Search period end: 05 August 2014 00:00
Orbit: 918 x 1294 km, 63.7° (Epoch: 15 July)

Date Brightness Start Highest point End Pass type
(mag) Time Alt. Az. Time Alt. Az. Time Alt. Az.
26 Jul 5.8 00:22:18 10° NW 00:26:38 15° N 00:31:03 10° NNE visible
26 Jul 5.3 02:14:47 10° NNW 02:20:58 23° NNE 02:27:09 10° ENE visible
26 Jul 3.6 04:05:34 10° NNW 04:13:37 65° NE 04:21:28 10° SE visible
26 Jul 4.9 21:40:34 10° W 21:47:02 32° NW 21:53:58 10° NNE visible
26 Jul 5.7 23:36:20 10° NW 23:40:52 16° N 23:45:31 10° NNE visible
27 Jul 5.5 01:29:56 10° NNW 01:35:23 19° NNE 01:40:52 10° ENE visible
27 Jul 4.1 03:20:51 10° NNW 03:28:36 47° NE 03:36:12 10° ESE visible
27 Jul 4.4 20:54:57 10° WSW 21:01:49 43° NW 21:09:15 10° NNE visible
27 Jul 5.6 22:50:08 10° WNW 22:55:09 18° NNW 23:00:20 10° NNE visible
28 Jul 5.6 00:44:53 10° NNW 00:49:42 17° NNE 00:54:34 10° NE visible
28 Jul 4.6 02:36:10 10° NNW 02:43:25 35° NE 02:50:35 10° ESE visible
28 Jul 3.0 04:27:05 10° NW 04:35:09 73° WSW 04:42:57 10° SSE visible
28 Jul 5.4 22:03:56 10° WNW 22:09:33 22° NNW 22:15:25 10° NNE visible
28 Jul 5.7 23:59:32 10° NNW 00:03:56 15° N 00:08:25 10° NE visible
29 Jul 5.0 01:51:28 10° NNW 01:58:04 27° NNE 02:04:39 10° E visible
29 Jul 3.2 03:42:15 10° NW 03:50:23 80° NE 03:58:17 10° SE visible
29 Jul 5.2 21:17:53 10° W 21:24:04 27° NNW 21:30:38 10° NNE visible
29 Jul 5.7 23:13:46 10° NW 23:18:09 15° N 23:22:37 10° NNE visible
30 Jul 5.3 01:06:41 10° NNW 01:12:35 22° NNE 01:18:29 10° ENE visible
30 Jul 3.7 02:57:30 10° NNW 03:05:28 57° NE 03:13:14 10° SE visible
30 Jul 3.5 04:49:00 10° NW 04:56:16 39° WSW 05:03:18 10° S visible
30 Jul 5.6 22:27:41 10° NW 22:32:23 17° NNW 22:37:14 10° NNE visible
31 Jul 5.5 00:21:46 10° NNW 00:26:57 18° NNE 00:32:10 10° ENE visible
31 Jul 4.2 02:12:48 10° NNW 02:20:22 42° NE 02:27:49 10° ESE visible
31 Jul 3.1 04:03:53 10° NW 04:11:46 58° WSW 04:19:22 10° SSE visible
31 Jul 5.5 21:41:28 10° WNW 21:46:43 19° NNW 21:52:10 10° NNE visible
31 Jul 5.5 23:36:37 10° NNW 23:41:13 16° N 23:45:53 10° NE visible
01 Aug 4.7 01:28:07 10° NNW 01:35:07 31° NE 01:42:04 10° E visible
01 Aug 3.0 03:18:58 10° NW 03:27:05 84° WSW 03:34:57 10° SSE visible
01 Aug 4.2 05:11:53 10° WNW 05:17:00 19° WSW 05:22:00 10° SW visible
01 Aug 5.3 20:55:18 10° WNW 21:01:09 24° NNW 21:07:19 10° NNE visible
01 Aug 5.5 22:51:05 10° NNW 22:55:26 15° N 22:59:52 10° NE visible
02 Aug 5.0 00:43:23 10° NNW 00:49:43 25° NNE 00:56:01 10° E visible
02 Aug 3.3 02:34:10 10° NNW 02:42:16 70° NE 02:50:07 10° SE visible
02 Aug 3.7 04:26:02 10° NW 04:32:43 30° WSW 04:39:13 10° SSW visible
02 Aug 5.5 22:05:11 10° NW 22:09:39 16° N 22:14:14 10° NNE visible
02 Aug 5.2 23:58:34 10° NNW 00:04:09 20° NNE 00:09:46 10° ENE visible
03 Aug 3.8 01:49:26 10° NNW 01:57:16 50° NE 02:04:55 10° ESE visible
03 Aug 3.3 03:40:44 10° NW 03:48:18 46° WSW 03:55:37 10° S visible
03 Aug 5.4 21:19:00 10° NW 21:23:55 18° NNW 21:28:59 10° NNE visible
03 Aug 5.4 23:13:33 10° NNW 23:18:29 17° NNE 23:23:27 10° NE visible
04 Aug 4.3 01:04:45 10° NNW 01:12:06 37° NE 01:19:22 10° ESE visible
04 Aug 3.0 02:55:42 10° NW 03:03:43 68° WSW 03:09:12 22° SSE visible
04 Aug 4.5 04:49:51 10° WNW 04:53:18 13° W 04:56:24 11° SW visible
04 Aug 5.3 20:32:47 10° WNW 20:38:17 21° NNW 20:44:01 10° NNE visible
04 Aug 5.4 22:28:15 10° NNW 22:32:43 16° N 22:37:14 10° NE visible
